Weather History for Charlotte, NC

Change the Weather History Date:

Friday, June 13, 2014

  Actual Average Record
Temperature  
Mean Temperature 75 °F 75 °F  
Max Temperature 85 °F 86 °F 97 °F (1958)
Min Temperature 64 °F 64 °F 49 °F (1903)
Degree Days  
Heating Degree Days 0 0  
Month to date heating degree days 0 0  
Since 1 June heating degree days 0 0  
Since 1 July heating degree days 3397 3385  
Cooling Degree Days 10 10  
Month to date cooling degree days 137 112  
Year to date cooling degree days 365 275  
Since 1 June cooling degree days 137 112  
Growing Degree Days 24 (Base 50)    
Moisture  
Dew Point 64 °F    
Average Humidity 71    
Maximum Humidity 93    
Minimum Humidity 48    
Precipitation  
Precipitation 0.17 in 0.13 in 3.77 in (1949)
Month to date precipitation 2.19 1.70  
Year to date precipitation 24.98 18.66  
Snow  
Snow 0.00 in 0.00 in 0.00 in ()
Month to date snowfall 0.0 0.0  
Since 1 June snowfall 0.0 0.0  
Since 1 July snowfall 9.3 4.3  
Snow Depth 0.00 in    
Sea Level Pressure  
Sea Level Pressure 29.86 in    
Wind  
Wind Speed 7 mph (SSW)    
Max Wind Speed 21 mph    
Max Gust Speed 29 mph    
Visibility 8 miles    
Events Fog , Rain , Thunderstorm    
T = Trace of Precipitation, MM = Missing Value Source: NWS Daily Summary

Daily Weather History Graph

Daily Weather History Graph

Search for Another Location

Airport:

Trip Planner

Search our weather history database for the weather conditions in past years. The results will help you decide how hot, cold, wet, or windy it might be!

Date:

Astronomy

Jun. 13, 2014 Rise Set
Actual Time 6:08 AM EDT 8:39 PM EDT
Civil Twilight 5:38 AM EDT 9:09 PM EDT
Nautical Twilight 5:02 AM EDT 9:45 PM EDT
Astronomical Twilight 4:21 AM EDT 10:26 PM EDT
Moon 9:11 PM EDT (6/13) 6:43 AM EDT (6/13)
Length of Visible Light 15h 30m
Length of Day
14h 30m
Full, 100% of the Moon is Illuminated
Jun 13
Full
Jun 19
Last Quarter
Jun 27
New
Jul 5
First Quarter
Jul 12
Full

Hourly Weather History & Observations

Time (EDT) Temp. Heat Index Dew Point Humidity Pressure Visibility Wind Dir Wind Speed Gust Speed Precip Events Conditions
12:52 AM 69.1 °F - 66.0 °F 90% 29.84 in 9.0 mi SSE 4.6 mph - N/A   Scattered Clouds
1:33 AM 68.0 °F - 66.2 °F 94% 29.87 in 10.0 mi SW 6.9 mph - N/A   Scattered Clouds
1:52 AM 68.0 °F - 66.0 °F 93% 29.84 in 10.0 mi SW 9.2 mph - N/A   Scattered Clouds
2:52 AM 66.9 °F - 64.9 °F 93% 29.84 in 9.0 mi SSW 6.9 mph - N/A   Mostly Cloudy
3:52 AM 66.9 °F - 64.0 °F 90% 29.82 in 8.0 mi Calm Calm - N/A   Mostly Cloudy
3:59 AM 64.4 °F - 62.6 °F 94% 29.84 in 7.0 mi SSE 6.9 mph - N/A   Clear
4:46 AM 66.2 °F - 64.4 °F 94% 29.85 in 0.2 mi SSW 4.6 mph - N/A   Scattered Clouds
4:52 AM 66.0 °F - 64.0 °F 93% 29.84 in 0.2 mi SSW 4.6 mph - N/A Fog Fog
5:05 AM 66.2 °F - 64.4 °F 94% 29.85 in 0.2 mi Calm Calm - N/A Fog Fog
5:15 AM 66.2 °F - 64.4 °F 94% 29.86 in 0.2 mi SW 9.2 mph - N/A Fog Fog
5:52 AM 66.0 °F - 64.0 °F 93% 29.86 in 0.2 mi SSW 8.1 mph - N/A   Scattered Clouds
5:57 AM 64.4 °F - 62.6 °F 94% 29.87 in 4.0 mi SSW 8.1 mph - N/A   Scattered Clouds
6:52 AM 66.0 °F - 64.0 °F 93% 29.86 in 8.0 mi SW 5.8 mph - N/A   Mostly Cloudy
7:52 AM 69.1 °F - 64.9 °F 87% 29.87 in 10.0 mi SW 9.2 mph - N/A   Mostly Cloudy
8:52 AM 72.0 °F - 64.9 °F 78% 29.88 in 10.0 mi SW 10.4 mph - N/A   Mostly Cloudy
9:52 AM 75.9 °F - 64.9 °F 69% 29.87 in 10.0 mi Variable 5.8 mph - N/A   Mostly Cloudy
10:52 AM 78.1 °F - 66.0 °F 66% 29.88 in 10.0 mi SSW 9.2 mph - N/A   Mostly Cloudy
11:52 AM 80.1 °F 81.9 °F 64.9 °F 60% 29.87 in 10.0 mi SE 8.1 mph - N/A   Mostly Cloudy
12:52 PM 82.9 °F 84.0 °F 63.0 °F 51% 29.86 in 10.0 mi SE 5.8 mph - N/A   Scattered Clouds
1:52 PM 82.0 °F 83.4 °F 64.0 °F 54% 29.85 in 10.0 mi Variable 6.9 mph - N/A   Mostly Cloudy
2:52 PM 82.9 °F 84.6 °F 64.9 °F 54% 29.84 in 10.0 mi SSW 6.9 mph 19.6 mph N/A   Mostly Cloudy
3:52 PM 84.0 °F 85.8 °F 64.9 °F 53% 29.82 in 10.0 mi South 8.1 mph - N/A   Overcast
4:52 PM 84.2 °F 85.0 °F 62.6 °F 48% 29.84 in 10.0 mi Variable 5.8 mph - N/A   Mostly Cloudy
5:52 PM 84.9 °F 86.1 °F 64.0 °F 49% 29.81 in 10.0 mi SSW 11.5 mph 17.3 mph N/A   Mostly Cloudy
6:52 PM 82.4 °F 83.9 °F 64.4 °F 54% 29.84 in 10.0 mi SSW 6.9 mph 17.3 mph N/A   Overcast
7:52 PM 75.0 °F - 62.1 °F 64% 29.86 in 10.0 mi NNW 12.7 mph 19.6 mph N/A   Overcast
7:58 PM 73.4 °F - 60.8 °F 65% 29.88 in 10.0 mi NNW 11.5 mph 23.0 mph N/A Thunderstorm Thunderstorm
8:35 PM 66.2 °F - 62.6 °F 88% 29.91 in 2.0 mi WSW 11.5 mph - 0.13 in Rain , Thunderstorm Heavy Thunderstorms and Rain
8:52 PM 66.9 °F - 63.0 °F 87% 29.88 in 7.0 mi SW 8.1 mph - 0.16 in Rain , Thunderstorm Light Thunderstorms and Rain
9:16 PM 68.0 °F - 64.4 °F 88% 29.90 in 9.0 mi Variable 5.8 mph - 0.00 in Rain Light Rain
9:52 PM 68.0 °F - 63.0 °F 84% 29.88 in 10.0 mi WSW 8.1 mph - 0.01 in   Overcast
10:52 PM 66.9 °F - 64.0 °F 90% 29.89 in 10.0 mi Variable 3.5 mph - N/A   Overcast
11:52 PM 66.9 °F - 64.0 °F 90% 29.89 in 10.0 mi Calm Calm - N/A   Overcast